Flag for United Kingdom Weather past 2 weeks in Portsmouth, England, United Kingdom

Now
48 °F

Broken clouds.


Feels Like: 45 °F
Forecast: 43 / 53 °F
Wind: 7 mph from East

Location: Southampton / Weather Centre


UV Index: 0 (Low)

Visibility: N/A


Pressure: 30.07 "Hg

Humidity: 58%

Dew point: 34 °F

Location of PortsmouthLocation

Historic Weather in Portsmouth

°F

Portsmouth temperature yesterday

Maximum temperature yesterday: 54 °F (at 12:20 PM)
Minimum temperature yesterday: 41 °F (at 5:50 AM)
Average temperature yesterday: 49 °F

Past Weeks' High & Low Weather Summary

 TemperatureHumidityPressure
High61 °F (Apr 17, 12:50 PM)100% (Apr 5, 5:50 AM)30.42 "Hg (Apr 5, 5:50 AM)
Low32 °F (Apr 9, 6:50 AM)38% (Apr 16, 4:50 PM)29.68 "Hg (Apr 7, 4:50 PM)
Average50 °F70%30.12 "Hg
* Reported Apr 4 10:20 AM — Apr 19 10:50 AM, Portsmouth, Weather by CustomWeather, © 2014

Note: Actual official high and low records may vary slightly from our data, if they occured in-between our weather recording intervals... More about our weather records

Advertising

Historic Weather Conditions — Data for Previous 24 hours

 ConditionsComfort  
Time TempWeatherWind HumidityBarometerVisibility
10:50 AM
Apr 19
46 °FBroken clouds.7 mph62%30.07 "HgN/A
10:20 AM46 °FScattered clouds.7 mph57%30.07 "HgN/A
9:50 AM46 °FScattered clouds.8 mph62%30.07 "HgN/A
9:20 AM45 °FScattered clouds.8 mph61%30.07 "HgN/A
8:50 AM41 °FScattered clouds.6 mph76%30.09 "HgN/A
8:20 AM39 °FScattered clouds.5 mph81%30.09 "HgN/A
7:50 AM37 °FScattered clouds.6 mph87%30.09 "HgN/A
7:20 AM37 °FScattered clouds.6 mph87%30.09 "HgN/A
6:50 AM34 °FPassing clouds.3 mph93%30.09 "HgN/A
6:20 AM32 °FClear.5 mph93%30.09 "Hg6 mi
5:50 AM34 °FClear.2 mph87%30.09 "Hg6 mi
10:20 PM
Apr 18
43 °FPassing clouds.5 mph66%30.12 "HgN/A
9:50 PM45 °FPassing clouds.3 mph61%30.12 "HgN/A
9:20 PM45 °FPassing clouds.5 mph61%30.12 "HgN/A
8:50 PM46 °FPassing clouds.5 mph57%30.12 "HgN/A
8:20 PM46 °FPassing clouds.5 mph53%30.12 "HgN/A
7:50 PM48 °FPassing clouds.7 mph54%30.12 "HgN/A
7:20 PM50 °FPassing clouds.7 mph50%30.12 "HgN/A
6:50 PM50 °FPassing clouds.9 mph50%30.12 "HgN/A
6:20 PM52 °FPassing clouds.8 mph47%30.12 "HgN/A
5:50 PM54 °FPassing clouds.9 mph44%30.12 "HgN/A
5:20 PM54 °FPassing clouds.10 mph44%30.12 "HgN/A
4:50 PM54 °FPassing clouds.10 mph41%30.12 "HgN/A
4:20 PM54 °FPassing clouds.10 mph44%30.12 "HgN/A
3:50 PM54 °FPassing clouds.10 mph44%30.12 "HgN/A
3:20 PM54 °FScattered clouds.12 mph47%30.12 "HgN/A
2:20 PM54 °FScattered clouds.13 mph44%30.15 "HgN/A
1:50 PM54 °FScattered clouds.12 mph47%30.15 "HgN/A
1:20 PM54 °FScattered clouds.12 mph51%30.15 "HgN/A
12:50 PM52 °FScattered clouds.13 mph47%30.15 "HgN/A
12:20 PM54 °FScattered clouds.7 mph51%30.15 "HgN/A
11:50 AM52 °FPassing clouds.10 mph50%30.15 "HgN/A
11:20 AM52 °FPassing clouds.12 mph54%30.15 "HgN/A
Weather by CustomWeather, © 2014

See weather overview